Tracking 28125 objects as of 3-Oct-2023
HD Live streaming from Space Station
objects crossing your sky now

SL-3 R/B

Track SL-3 R/B now!
10-day predictions
SL-3 R/B is classified as:


NORAD ID: 13068
Int'l Code: 1982-013B
Perigee: 521.4 km
Apogee: 558.3 km
Inclination: 81.2 °
Period: 95.3 minutes
Semi major axis: 6910 km
RCS: 5.3655 m2 (large)
Launch date: February 19, 1982
Source: Commonwealth of Independent States (former USSR) (CIS)
Launch site: PLESETSK MISSILE AND SPACE COMPLEX (PKMTR)

Note: This is a ROCKET BODY
Your satellite tracking list
Your tracking list is empty




NASA's NSSDC Master Catalog

Two Line Element Set (TLE):
1 13068U 82013B   23275.53232055  .00003941  00000-0  23184-3 0  9994
2 13068  81.1751 114.2305 0026679 277.0880  82.7312 15.11141860269841
Source of the keplerian elements: AFSPC